Location: Le Petit-Vavre
(46.5081°N, 1.5239°E)
Time: 21:32:32
(UTC+00:00)

SeaSat 1 - Pass Details

Date: 03 March 2021
Orbit: 744 x 747 km, 108.0° (Epoch: 21 April)

Event Time Altitude Azimuth Distance (km) Brightness Sun altitude
Rises 19:33:58 0° 25° (NNE) 3,201 5.6 -19.8°
Reaches altitude 10° 19:36:16 10° 22° (NNE) 2,273 4.8 -20.2°
Maximum altitude 19:41:08 60° 303° (WNW) 856 3.0 -21.0°
Drops below altitude 10° 19:45:58 10° 224° (SW) 2,261 5.3 -21.8°
Sets 19:48:14 0° 221° (SW) 3,181 6.1 -22.2°
